Change the Weather History Date:

Wednesday, December 5, 2012

  Actual Average Record
Temperature  
Mean Temperature 61 °F -  
Max Temperature 69 °F 61 °F 73 °F (1970)
Min Temperature 53 °F 37 °F 23 °F (1988)
Degree Days  
Heating Degree Days 4    
Growing Degree Days 11 (Base 50)    
Moisture  
Dew Point 54 °F    
Average Humidity 81    
Maximum Humidity 97    
Minimum Humidity 61    
Precipitation  
Precipitation 0.01 in - - ()
Sea Level Pressure  
Sea Level Pressure 30.17 in    
Wind  
Wind Speed 7 mph (WSW)    
Max Wind Speed 12 mph    
Max Gust Speed 18 mph    
Visibility 10 miles    
Events Rain    
Averages and records for this station are not official NWS values.
T = Trace of Precipitation, MM = Missing Value Source: NWS Daily Summary

Daily Weather History Graph

Daily Weather History Graph

Search for Another Location

Airport or City:

Trip Planner

Search our weather history database for the weather conditions in past years. The results will help you decide how hot, cold, wet, or windy it might be!

Date:

Astronomy

Dec. 05, 2012 Rise Set
Actual Time 6:59 AM EST 4:55 PM EST
Civil Twilight 6:31 AM EST 5:23 PM EST
Nautical Twilight 6:00 AM EST 5:54 PM EST
Astronomical Twilight 5:29 AM EST 6:25 PM EST
Moon 11:30 PM EST (12/5) 11:32 AM EST (12/5)
Length of Visible Light 10h 51m
Length of Day
9h 55m
Waning Gibbous, 60% of the Moon is Illuminated
Dec 5
Waning Gibbous
Dec 6
Last Quarter
Dec 13
New
Dec 20
First Quarter
Dec 28
Full

Hourly Weather History & Observations

Time (EST) Temp. Dew Point Humidity Pressure Visibility Wind Dir Wind Speed Gust Speed Precip Events Conditions
12:56 AM 61.0 °F 59.0 °F 93% 30.21 in 10.0 mi WSW 5.8 mph - N/A   Clear
1:56 AM 61.0 °F 59.0 °F 93% 30.21 in 10.0 mi WSW 5.8 mph - N/A   Overcast
2:56 AM 61.0 °F 57.9 °F 90% 30.19 in 10.0 mi WSW 6.9 mph - N/A   Scattered Clouds
3:56 AM 57.0 °F 55.9 °F 96% 30.18 in 10.0 mi SW 5.8 mph - N/A   Clear
4:56 AM 57.9 °F 57.0 °F 97% 30.17 in 10.0 mi SW 5.8 mph - N/A   Clear
5:56 AM 55.9 °F 55.0 °F 97% 30.18 in 10.0 mi SSW 5.8 mph - 0.01 in   Clear
6:56 AM 57.0 °F 55.9 °F 96% 30.19 in 10.0 mi SSW 6.9 mph - N/A   Clear
7:56 AM 61.0 °F 57.9 °F 90% 30.19 in 10.0 mi SW 8.1 mph - N/A   Clear
9:56 AM 64.0 °F 57.9 °F 80% 30.20 in 10.0 mi West 9.2 mph - N/A   Clear
10:56 AM 64.9 °F 57.9 °F 78% 30.18 in 10.0 mi WSW 6.9 mph - N/A   Clear
11:56 AM 68.0 °F 57.0 °F 68% 30.15 in 10.0 mi WSW 6.9 mph - N/A   Clear
12:56 PM 69.1 °F 55.9 °F 63% 30.12 in 10.0 mi WSW 6.9 mph - N/A   Clear
1:56 PM 69.1 °F 55.0 °F 61% 30.10 in 10.0 mi WSW 8.1 mph - N/A   Partly Cloudy
2:56 PM 69.1 °F 55.0 °F 61% 30.09 in 10.0 mi West 5.8 mph - N/A   Overcast
3:56 PM 66.9 °F 57.0 °F 70% 30.10 in 10.0 mi NW 3.5 mph - N/A   Mostly Cloudy
4:56 PM 61.0 °F 57.0 °F 87% 30.11 in 10.0 mi SSW 3.5 mph - N/A   Scattered Clouds
5:56 PM 59.0 °F 57.0 °F 93% 30.13 in 10.0 mi Calm Calm - N/A   Scattered Clouds
6:56 PM 60.1 °F 54.0 °F 80% 30.15 in 10.0 mi ENE 8.1 mph - N/A   Overcast
7:27 PM 57.2 °F 48.2 °F 72% 30.17 in 10.0 mi NE 11.5 mph 18.4 mph N/A   Mostly Cloudy
7:56 PM 57.0 °F 48.9 °F 74% 30.18 in 10.0 mi NE 9.2 mph - N/A   Overcast
8:56 PM 55.9 °F 48.9 °F 77% 30.18 in 10.0 mi NE 8.1 mph - N/A   Overcast
9:56 PM 55.9 °F 48.9 °F 77% 30.19 in 10.0 mi NE 5.8 mph - N/A   Overcast
10:35 PM 53.6 °F 48.2 °F 82% 30.19 in 10.0 mi NE 8.1 mph - N/A   Overcast
10:56 PM 55.0 °F 45.0 °F 69% 30.20 in 10.0 mi NNE 10.4 mph - N/A   Overcast
11:56 PM 53.1 °F 44.1 °F 71% 30.19 in 10.0 mi NNE 6.9 mph - 0.00 in Rain Light Rain